Regional Weather Roundup
Issued by NWS

Home | Current Version | Previous Version | Text Only | Print | Product List | Glossary Off
Versions: 1 2 3 4 5 6 7 8 9 10 11 12 13 14 15 16 17 18 19 20 21 22 23 24 25 26 27 28 29 30 31 32 33 34 35 36 37 38 39 40 41 42 43 44 45 46 47 48 49 50

000
ASUS43 KLMK 221902
RWRKY
KENTUCKY REGIONAL WEATHER ROUNDUP
NATIONAL WEATHER SERVICE LOUISVILLE KY
300 PM EDT THU JUN 22 2017

NOTE "FAIR" INDICATES FEW OR NO CLOUDS BELOW 12,000 FEET
WITH NO SIGNIFICANT WEATHER AND/OR OBSTRUCTIONS TO VISIBILITY.

KYZ001>023-026-027-061>063-070>075-222000-
WESTERN AND SOUTH CENTRAL KENTUCKY

CITY           SKY/WX    TMP DP  RH WIND       PRES   REMARKS
PADUCAH        CLOUDY    78  72  81 SE9       29.85F
HENDERSON      RAIN      74  72  93 S10G18    29.90F
OWENSBORO      LGT RAIN  74  72  93 S17       29.92F FOG
HOPKINSVILLE   LGT RAIN  75  73  94 SE8       29.90S FOG
BOWLING GREEN  LGT RAIN  73  73 100 SE10      29.94F FOG
GLASGOW        NOT AVBL
$$

KYZ024-025-028>034-038-045-046-053-222000-
NORTH CENTRAL KENTUCKY

CITY           SKY/WX    TMP DP  RH WIND       PRES   REMARKS
LOUISVILLE/SDF LGT RAIN  76  72  87 S13       29.98F
LOUISVILLE/LOU LGT RAIN  77  72  84 SE13      29.99F
FORT KNOX      LGT RAIN  73  71  95 SE10      29.97F
$$

KYZ035>037-039>044-047>052-055>060-089>105-222000-
NORTHEAST KENTUCKY

CITY           SKY/WX    TMP DP  RH WIND       PRES   REMARKS
LEXINGTON      LGT RAIN  74  69  85 S13       30.04F
COVINGTON      CLOUDY    79  68  69 SW17      29.99F
FRANKFORT      LGT RAIN  75  69  81 S12       30.01F
$$

KYZ054-064>069-076>088-106>120-222000-
SOUTHEAST KENTUCKY

CITY           SKY/WX    TMP DP  RH WIND       PRES   REMARKS
JACKSON        RAIN      71  69  93 CALM      30.11F FOG
LONDON         LGT RAIN  72  68  87 SE8       30.07F
SOMERSET       LGT RAIN  73  72  94 E3        30.05F
MIDDLESBORO    CLOUDY    74  70  87 CALM      30.09F
MONTICELLO     LGT RAIN  75  71  87 SE7       30.05F
$$





USA.gov is the U.S. government's official web portal to all federal, state and local government web resources and services.